TimeCST,TemperatureF,Dew PointF,Humidity,Sea Level PressureIn,VisibilityMPH,Wind Direction,Wind SpeedMPH,Gust SpeedMPH,PrecipitationIn,Events,Conditions,WindDirDegrees,DateUTC
12:28 AM,50.0,48.2,94,29.84,10.0,West,11.5,-,N/A,,Overcast,270,2013-02-13 06:28:00
12:53 AM,50.0,46.9,89,29.81,10.0,West,10.4,18.4,N/A,,Overcast,260,2013-02-13 06:53:00
1:44 AM,48.2,46.4,93,29.84,10.0,WSW,10.4,-,N/A,,Overcast,240,2013-02-13 07:44:00
1:53 AM,48.9,46.0,90,29.83,10.0,WSW,12.7,-,N/A,,Overcast,250,2013-02-13 07:53:00
2:46 AM,48.2,44.6,87,29.85,10.0,WSW,9.2,-,N/A,,Scattered Clouds,250,2013-02-13 08:46:00
2:53 AM,48.0,45.0,89,29.84,10.0,WSW,9.2,-,N/A,,Scattered Clouds,240,2013-02-13 08:53:00
3:07 AM,48.2,46.4,93,29.87,10.0,West,12.7,19.6,N/A,,Mostly Cloudy,260,2013-02-13 09:07:00
3:53 AM,48.0,45.0,89,29.88,10.0,West,11.5,-,N/A,,Overcast,270,2013-02-13 09:53:00
4:53 AM,46.9,44.1,90,29.89,10.0,West,11.5,-,N/A,,Overcast,280,2013-02-13 10:53:00
5:24 AM,46.4,44.6,93,29.92,6.0,WNW,10.4,-,0.00,Rain,Light Rain,300,2013-02-13 11:24:00
5:34 AM,46.4,44.6,93,29.92,5.0,WNW,11.5,18.4,0.00,Rain,Light Rain,300,2013-02-13 11:34:00
5:40 AM,46.4,44.6,93,29.92,7.0,WNW,11.5,-,0.00,,Overcast,300,2013-02-13 11:40:00
5:48 AM,46.4,44.6,93,29.91,10.0,WNW,11.5,-,0.00,,Overcast,300,2013-02-13 11:48:00
5:53 AM,46.0,43.0,89,29.90,10.0,WNW,10.4,-,0.00,,Overcast,300,2013-02-13 11:53:00
6:53 AM,46.0,43.0,89,29.93,10.0,WNW,11.5,18.4,0.00,,Overcast,290,2013-02-13 12:53:00
7:29 AM,46.4,42.8,87,29.94,10.0,WNW,12.7,-,N/A,,Overcast,290,2013-02-13 13:29:00
7:53 AM,46.0,42.1,86,29.94,10.0,WNW,12.7,-,N/A,,Overcast,300,2013-02-13 13:53:00
8:04 AM,46.4,42.8,87,29.96,10.0,WNW,13.8,-,N/A,,Overcast,290,2013-02-13 14:04:00
8:36 AM,46.4,42.8,87,29.98,10.0,WNW,12.7,-,N/A,,Overcast,290,2013-02-13 14:36:00
8:53 AM,46.9,42.1,83,29.99,10.0,WNW,13.8,18.4,N/A,,Overcast,290,2013-02-13 14:53:00
9:53 AM,46.9,41.0,80,30.00,10.0,WNW,13.8,-,N/A,,Overcast,300,2013-02-13 15:53:00
10:53 AM,48.0,39.9,74,30.00,10.0,WNW,11.5,21.9,N/A,,Overcast,290,2013-02-13 16:53:00
11:00 AM,46.4,39.2,76,30.01,10.0,WNW,13.8,-,N/A,,Overcast,300,2013-02-13 17:00:00
11:53 AM,50.0,39.0,66,29.99,10.0,NW,16.1,24.2,N/A,,Overcast,310,2013-02-13 17:53:00
12:39 PM,50.0,37.4,62,29.99,10.0,NW,17.3,24.2,N/A,,Overcast,320,2013-02-13 18:39:00
12:53 PM,50.0,37.9,63,29.98,10.0,NW,10.4,20.7,N/A,,Overcast,320,2013-02-13 18:53:00
1:53 PM,48.0,37.9,68,29.98,10.0,NW,11.5,20.7,N/A,,Overcast,320,2013-02-13 19:53:00
2:01 PM,46.4,37.4,71,29.99,10.0,NW,16.1,20.7,N/A,,Overcast,320,2013-02-13 20:01:00
2:53 PM,51.1,37.9,61,29.99,10.0,NW,8.1,-,N/A,,Overcast,320,2013-02-13 20:53:00
3:42 PM,48.2,37.4,66,30.01,10.0,NNW,5.8,-,N/A,,Overcast,330,2013-02-13 21:42:00
3:53 PM,48.9,37.0,64,30.00,10.0,North,4.6,-,N/A,,Overcast,360,2013-02-13 21:53:00
4:53 PM,46.9,37.9,71,30.01,10.0,North,6.9,-,N/A,,Overcast,10,2013-02-13 22:53:00
5:25 PM,46.4,37.4,71,30.03,10.0,North,4.6,-,N/A,,Overcast,350,2013-02-13 23:25:00
5:53 PM,46.0,37.9,73,30.02,10.0,Calm,Calm,-,N/A,,Overcast,0,2013-02-13 23:53:00
6:53 PM,46.0,37.9,73,30.04,10.0,Calm,Calm,-,N/A,,Overcast,0,2013-02-14 00:53:00
7:53 PM,45.0,37.9,76,30.05,10.0,Calm,Calm,-,N/A,,Overcast,0,2013-02-14 01:53:00
8:53 PM,42.1,37.9,85,30.06,10.0,Calm,Calm,-,N/A,,Partly Cloudy,0,2013-02-14 02:53:00
9:53 PM,39.9,37.0,89,30.07,10.0,Calm,Calm,-,N/A,,Clear,0,2013-02-14 03:53:00
10:53 PM,37.9,36.0,93,30.07,5.0,Calm,Calm,-,N/A,,Clear,0,2013-02-14 04:53:00
11:53 PM,37.0,35.1,93,30.07,4.0,Calm,Calm,-,N/A,,Clear,0,2013-02-14 05:53:00